{"data":{"norad_id":58181,"intl_designator":"2023-167G","name":"STARLINK-30821","alt_names":[],"object_type":"PAYLOAD","status":"ACTIVE","operator":null,"country":"US","launch_date":"2023-10-30","launch_site_code":"AFETR","launch_vehicle":null,"mission":null,"orbit_class":"UNKNOWN","rcs_meters":null,"size_class":null,"mass_kg":null,"dimensions":null,"purposes":["comms"],"wikipedia_slug":null,"has_3d_model":false,"image_url":null,"decayed_at":null,"tle_current":{"epoch":"2026-05-25T04:07:42.584160Z","epoch_age_seconds":63403,"freshness":"FRESH","line1":"1 58181U 23167G   26145.17202065  .00001544  00000+0  65603-4 0  9990","line2":"2 58181  43.0033  71.3310 0000811 251.2551 108.8212 15.27578249142676","mean_motion":15.27578249,"eccentricity":8.11e-5,"inclination_deg":43.0033,"raan_deg":71.331,"arg_perigee_deg":251.2551,"mean_anomaly_deg":108.8212,"bstar":6.5603e-5,"rev_number":14267,"period_min":94.266856767741,"perigee_km":482.49789655097,"apogee_km":483.61078178619,"semimajor_km":6861.1913391686,"source":"CELESTRAK","updated_at":"2026-05-25T13:38:18.569242Z"}}}